Regional Weather Roundup
Issued by NWS Wilmington, NC

Home | Current Version | Previous Version | Text Only | Print | Product List | Glossary On
Versions: 1 2 3 4 5 6 7 8 9 10 11 12 13 14 15 16 17 18 19 20 21 22 23 24 25 26 27 28 29 30 31 32 33 34 35 36 37 38 39 40 41 42 43 44 45 46 47 48 49 50
225
ASUS42 KILM 250913
RWRILM
RWRILM
REGIONAL HOURLY WEATHER ROUNDUP
NATIONAL WEATHER SERVICE WILMINGTON NC
500 AM EDT SUN JUN 25 2017

NOTE: "FAIR" INDICATES FEW OR NO CLOUDS BELOW 12,000 FEET WITH NO
SIGNIFICANT WEATHER AND/OR OBSTRUCTIONS TO VISIBILITY.

...............WFO WILMINGTON COUNTY WARNING AREA...............

......COASTAL NC AND SC COUNTIES......

CITY           SKY/WX    TMP DP  RH WIND       PRES   REMARKS
WILMINGTON     MOCLDY    76  75  97 SW3       30.01S
N MYRTLE BEACH CLOUDY    76  73  91 W5        30.01S
MYRTLE BEACH   CLOUDY    76  73  91 W3        30.02F

......INLAND NC AND SC COUNTIES.......

CITY           SKY/WX    TMP DP  RH WIND       PRES   REMARKS
LUMBERTON      CLOUDY    75  74  96 SW6       30.01R
ELIZABETHTOWN  NOT AVBL
WHITEVILLE     CLOUDY    75  73  94 SW3       30.00F
FLORENCE       CLOUDY    75  75 100 SW5       30.02F FOG
DARLINGTON     CLOUDY    75  74  96 W5        30.02F
KINGSTREE      FAIR      72  72 100 CALM      30.02F
HARTSVILLE     FAIR      72  72 100 CALM      30.02F FOG
BENNETTSVILLE  CLOUDY    77  75  94 S3        30.01S FOG
CONWAY         FAIR      73  72  94 CALM      30.02R
GEORGETOWN     FAIR      75  73  94 CALM      30.03R
MARION         CLOUDY    73  72  94 W6        30.02S

....................REST OF NORTH CAROLINA......................

.........EASTERN NC.........

CITY           SKY/WX    TMP DP  RH WIND       PRES   REMARKS
CAPE HATTERAS  CLOUDY    76  73  91 W8        30.00R
JACKSONVILLE   CLOUDY    74  74 100 SW5       30.01S
MOREHEAD CITY  CLOUDY    79  78  97 SW8       30.01R
KENANSVILLE    MOCLDY    73  73 100 CALM      30.01R FOG
NEW BERN       CLOUDY    75  75 100 SW5       30.02R
ELIZABETH CITY CLOUDY    73  73 100 SW3       29.99S

.........CENTRAL NC.........

CITY           SKY/WX    TMP DP  RH WIND       PRES   REMARKS
RALEIGH DURHAM MOCLDY    70  69  97 CALM      30.02S
ROCKY MOUNT    CLEAR     70  70 100 S3        30.00S
ROANOKE RAPIDS NOT AVBL
FAYETTEVILLE   CLOUDY    77  76  96 S6        30.00S FOG
HOFFMAN        CLOUDY    73  72  95 W3        30.01R

.........WESTERN NC.........

CITY           SKY/WX    TMP DP  RH WIND       PRES   REMARKS
CHARLOTTE      CLOUDY    70  67  90 NW5       30.04S
GREENSBORO     PTCLDY    70  70 100 CALM      30.04R
HICKORY        NOT AVBL
BOONE          NOT AVBL
ASHEVILLE      NOT AVBL

.....................REST OF SOUTH CAROLINA.....................

.........EASTERN SC.........

CITY           SKY/WX    TMP DP  RH WIND       PRES   REMARKS
CHARLESTON     PTCLDY    76  74  93 SW5       30.01F
BEAUFORT MCAS  PTCLDY    77  76  96 SW3       30.03S
HILTON HEAD    CLEAR     77  75  94 CALM      30.03F

.........CENTRAL SC.........

CITY           SKY/WX    TMP DP  RH WIND       PRES   REMARKS
COLUMBIA       CLOUDY    73  70  90 SW6       30.03S
ORANGEBURG     CLOUDY    74  73  97 SW6       30.04S
SUMTER SHAW    PTCLDY    74  72  94 W5        30.00F

.........WESTERN SC.........

CITY           SKY/WX    TMP DP  RH WIND       PRES   REMARKS
GREENVILLE     NOT AVBL
ROCK HILL      CLOUDY    70  68  93 CALM      30.05R
ANDERSON       CLOUDY    70  68  93 CALM      30.06R
CLEMSON        NOT AVBL
GREENWOOD      CLOUDY    70  68  93 CALM      30.07R FOG


...................COASTAL AND OFFSHORE REPORTS..................

................LOCAL PIERS AND NC RESERVE................


STATION/POSITION TIME  SKY/WX   TEMP    WIND        PRES    VSBY
                                AIR SEA DIR/SP/G
                 (UTC)          (F)     (DEG/KT/KT) (MB)    (MI)
JOHNY MRCER PIER 0848            78 79  210/  9/ 10 1015.3R
NC RESRV MASNBRO 0745            76     250/  3     1017.0
OCEAN CREST PIER NOT AVBL
SPRINGMAID  PIER 0848                               1015.7F


................COASTAL AND OFFSHORE BUOYS................


STATION/POSITION TIME  SKY/WX   TEMP    WIND        PRES    VSBY
                                AIR SEA DIR/SP/G
                 (UTC)          (F)     (DEG/KT/KT) (MB)    (MI)
DIMNDSHOAL 41025 0850            78 80  240/ 21/ 25 1015.2R
WVE H/P(F/S)=  6/ 6

CAPE LOOKOUT     0900            78     220/ 10/ 12 1015.9R
ONSLOW BAY 41036 NOT AVBL
ONSLOW BAY 41064 0808            79 80  240/ 14/ 17 1016.5F
ONSLOW BAY 41159 0843               80                N/A
WVE H/P(F/S)=  6/ 6

MASNBO INL 41110 0859               79                N/A
WVE H/P(F/S)=  3/ 6

WILM HARBR 41108 NOT AVBL
27SE WRITB 41037 0808            79 80  220/ 14/ 19 1016.1R
FRYING PAN 41013 0900            80 80  220/ 16/ 19 1016.5
SUNST NRSH 41024 0808            78 79  260/  8/ 12 1016.2F
CAPRS NRSH 41029 0808            85 83  240/ 16/ 21 1016.3F
EDISTO     41004 0850            81 80  240/ 16/ 17 1016.8F
WVE H/P(F/S)=  5/ 6 SWL H/P/D(F/S/D)=  2/140/ 8



..........OFFSHORE BUOYS BEYOND 100 NM OFFSHORE...........
.....IN A TRIANGLE---HAT TO BERMUDA TO BAHAMAS TO HAT.....


STATION/POSITION TIME  SKY/WX   TEMP    WIND        PRES    VSBY
                                AIR SEA DIR/SP/G
                 (UTC)          (F)     (DEG/KT/KT) (MB)    (MI)
150E HAT   41001 0900            79 78  220/ 16/ 21 1017.6
W BERMUDA  41048 0850            80 80  220/  8/ 10 1021.0F
WVE H/P(F/S)=  4/ 8 SWL H/P/D(F/S/D)=  3/110/ 8

ATLANTIC S 41049 0850            80 82   80/ 10/ 12 1022.9F
WVE H/P(F/S)=  3/ 8 SWL H/P/D(F/S/D)=  3/ 90/ 8

E BAHAMAS  41046 0900            81 82  100/ 16/ 17 1019.9
NE BAHAMAS 41047 0900            81 83  140/  8/ 10 1021.0
120E CANVRL41010 0900            82 83  180/ 10/ 14 1019.1

END




USA.gov is the U.S. government's official web portal to all federal, state and local government web resources and services.